{"data":{"norad_id":56729,"epoch":"2026-05-25T02:59:01.898592Z","epoch_age_seconds":74718,"freshness":"FRESH","line1":"1 56729U 23068V   26145.12432753  .00000815  00000+0  10383-3 0  9994","line2":"2 56729  86.6559  34.9967 0002391  88.7729 271.3766 14.80237220162958","mean_motion":14.8023722,"eccentricity":0.0002391,"inclination_deg":86.6559,"raan_deg":34.9967,"arg_perigee_deg":88.7729,"mean_anomaly_deg":271.3766,"bstar":0.00010383,"rev_number":16295,"period_min":97.281704617588,"perigee_km":626.90014155502,"apogee_km":630.25075144694,"semimajor_km":7006.712446501,"source":"CELESTRAK","updated_at":"2026-05-25T13:38:14.843688Z"}}